Location: Ebersbach
(48.7175°N, 9.5296°E)
Time: 22:38:54
(UTC+00:00)

Daily predictions for brighter satellites

Satellite Brightness Start Highest point End
(mag) Time Altitude Azimuth Time Altitude Azimuth Time Altitude Azimuth
Cosmos 1844 Rocket 4.5 15:57:59 10° N 16:00:25 13° NNE 16:02:52 10° NE
Cosmos 2219 4.2 15:56:27 10° NNW 16:01:14 26° NE 16:06:00 10° E
Cosmos 1980 Rocket 3.6 15:58:49 10° SE 16:02:48 20° E 16:06:47 10° NE
CORIOLIS 4.4 15:58:01 10° SE 16:03:05 46° ENE 16:08:11 10° N
ATLAS CENTAUR R/B 3.7 16:00:48 10° WNW 16:03:24 23° WSW 16:05:57 10° S
Cosmos 1634 Rocket 4.3 15:58:53 10° SSW 16:05:03 72° W 16:11:14 10° N
NOSS 3-2 (A) 3.7 16:00:58 10° WSW 16:06:01 58° NW 16:12:11 10° NE
USA 307 -1.1 16:07:20 10° WSW 16:08:34 68° SSE 16:08:49 30° ENE
NOSS 3-2 (C) 3.2 16:04:15 10° SSW 16:09:15 74° SE 16:15:18 10° NE
Cosmos 2263 Rocket 2.7 16:04:42 10° NNW 16:09:58 38° NE 16:15:14 10° ESE
Cosmos 1867 3.6 16:06:18 10° NW 16:11:48 87° NE 16:17:15 10° SE
ARIANE 5 R/B 2.9 16:08:26 10° SE 16:13:10 40° ENE 16:17:57 10° N
IRIDIUM 106 4.4 16:08:25 10° N 16:13:34 55° E 16:18:41 10° SSE
Cosmos 2279 Rocket 4.1 16:07:31 10° S 16:13:44 87° W 16:20:02 10° N
IRS-1C 4.5 16:08:59 10° SE 16:13:57 42° ENE 16:18:56 10° N
Cosmos 1607 4.5 16:08:16 10° NW 16:14:26 67° WSW 16:20:40 10° SSE
Cosmos 1825 Rocket 3.9 16:13:46 10° N 16:17:54 41° ENE 16:21:59 10° SE
Cosmos 1758 Rocket 4.3 16:17:59 10° NNW 16:22:13 57° W 16:26:24 10° S
Meteor 1-25 Rocket 4.3 16:16:45 10° N 16:22:33 64° ENE 16:28:15 10° SSE
Cosmos 2098 Rocket 3.4 16:19:01 10° SSW 16:23:23 81° W 16:28:33 10° N
Lacrosse 4 Rocket 3.7 16:22:21 10° WNW 16:24:16 13° NW 16:26:09 10° N
Cosmos 1076 Rocket 4.2 16:21:06 10° N 16:25:01 33° ENE 16:28:55 10° SE
Cosmos 1655 Rocket 4.3 16:19:38 10° N 16:25:34 43° ENE 16:31:26 10° SE
SAR-Lupe-4 4.0 16:22:29 10° SE 16:25:46 37° ENE 16:29:05 10° N
USA 290 4.3 16:22:59 10° NW 16:25:58 33° WSW 16:28:55 10° S
Cosmos 1782 3.4 16:22:55 10° SSW 16:26:25 51° WNW 16:29:56 10° N
Cosmos 1933 3.4 16:22:59 10° S 16:26:40 49° E 16:30:23 10° NNE
Meteor 1-28 Rocket 2.8 16:26:43 10° NNE 16:30:04 89° ENE 16:33:24 10° SSW
Cosmos 2227 Rocket 2.1 16:24:34 10° NNW 16:30:15 80° ENE 16:35:55 10° SSE
CBERS-1 4.4 16:27:01 10° S 16:32:07 71° WSW 16:37:14 10° NNW
Cosmos 2369 Rocket 4.4 16:30:51 10° NW 16:33:22 13° NNW 16:35:55 10° N
SPOT 1/Viking Rocket 4.2 16:32:24 10° SE 16:37:02 33° ENE 16:41:40 10° N
SAR-Lupe-1 4.3 16:34:56 10° SE 16:38:23 45° ENE 16:41:52 10° N
SJ-12 3.8 16:34:57 10° SSE 16:38:35 50° ENE 16:42:17 10° N
Cosmos 1697 Rocket 2.6 16:36:10 10° SSW 16:41:46 80° ESE 16:47:24 10° NNE
CENTAUR R/B 3.9 16:36:29 10° W 16:42:04 32° NNW 16:48:30 11° NE
CZ-2D R/B 2.7 16:40:53 10° SSE 16:43:58 56° ENE 16:47:04 10° N
NOSS 2-3 (C) 3.4 16:42:29 10° SSW 16:45:48 44° SE 16:47:48 21° ENE
Cosmos 1538 Rocket 4.1 16:41:02 10° NNW 16:46:16 57° ENE 16:51:30 10° SE
Cosmos 2058 Rocket 4.0 16:42:33 10° SSE 16:46:23 28° E 16:49:15 15° NE
NOSS 3 (A) 4.1 16:45:03 10° NW 16:47:24 63° NE 16:50:26 10° SE
Cosmos 2266 Rocket 4.2 16:43:12 10° NNW 16:49:19 75° W 16:55:21 10° S
Cosmos 1606 Rocket 3.5 16:48:12 10° S 16:52:38 85° E 16:57:05 10° N
Lacrosse 5 rocket 2.6 16:54:45 10° NW 16:57:42 22° N 16:58:51 19° NNE
EXPRESS MD2 3.9 16:55:52 10° SSW 16:58:06 26° SE 16:59:01 23° ESE
UNK 3.8 16:54:21 10° NNE 16:58:57 80° WNW 17:03:29 10° SSW
CZ-4C R/B 4.0 16:53:25 10° NW 17:00:19 52° WSW 17:08:40 10° SSE
Thor Agena Rocket 4.3 16:55:21 10° S 17:00:27 56° WSW 17:05:32 10° NNW
IRS-P3 4.0 16:57:45 10° SSE 17:03:03 74° ENE 17:08:22 10° NNW
NOSS 2-3 (D) 3.0 17:01:27 10° SW 17:05:07 83° SE 17:07:03 28° NE
NOSS 2-3 (E) 3.0 17:02:08 10° SW 17:05:46 89° NW 17:07:43 27° NE
Cosmos 1354 Rocket 4.3 17:01:05 10° SSW 17:06:18 66° WNW 17:11:33 10° NNE
Resurs 1-3 4.1 17:03:16 10° SE 17:07:11 36° ENE 17:11:08 10° N
CZ-4 R/B 4.4 17:03:57 10° SSE 17:07:47 53° ENE 17:11:39 10° N
Cosmos-2242 3.3 17:05:28 10° SSE 17:09:27 42° E 17:11:23 26° NE
MOS 1 Rocket 3.5 17:05:03 10° SSE 17:10:02 90° WSW 17:15:19 10° NNW
USA 238 DEB 3.5 17:04:25 10° SSW 17:10:26 66° SE 17:14:48 22° NE
USA 238 3.5 17:04:32 10° SSW 17:10:33 65° SE 17:14:54 22° NE
Meteor 2-20 4.4 17:05:00 10° S 17:11:07 71° E 17:17:14 10° NNE
Spot 4 Rocket 4.2 17:08:56 10° SE 17:13:50 48° ENE 17:18:45 10° N
Cosmos 1898 Rocket 3.7 17:09:02 10° S 17:13:57 48° ESE 17:16:31 26° NE
Cosmos 1726 Rocket 3.8 17:10:33 10° SSW 17:15:10 78° W 17:19:46 10° N
Gbstr 26 Del rocket 2.6 17:11:09 10° WSW 17:15:13 81° NNW 17:16:29 40° ENE
Cosmos 1553 Rocket 4.3 17:09:54 10° SSE 17:15:40 43° E 17:21:32 10° NNE
USA 215 3.8 17:12:07 23° ENE 17:15:51 43° N 17:21:58 10° WNW
Cosmos 372 Rocket 3.9 17:11:32 10° S 17:16:36 61° ESE 17:19:40 23° NE
AQUARIUS 4.3 17:13:16 10° S 17:17:39 73° WSW 17:22:05 10° NNW
Cosmos 2082 3.7 17:13:08 10° NNW 17:18:49 63° ENE 17:24:29 10° SE
SMAP 4.3 17:14:39 10° S 17:19:04 43° W 17:23:31 10° NNW
IRAS Rocket 4.4 17:14:54 10° SE 17:20:07 47° ENE 17:25:21 10° N
Cosmos 1805 2.8 17:17:40 10° N 17:21:00 57° ENE 17:24:18 10° SSE
GEOS 3 Rocket 3.7 17:19:10 22° NE 17:22:43 82° NW 17:28:05 10° SW
YAOGAN 1 2.5 17:21:41 10° SSE 17:25:50 55° ENE 17:30:01 10° N
Cosmos 923 Rocket 4.0 17:22:39 10° NNW 17:27:47 57° ENE 17:32:38 11° SE
Cosmos 1937 Rocket 3.7 17:24:34 10° S 17:29:31 48° ESE 17:30:51 39° ENE
SL-16 R/B 3.7 17:26:56 10° SSE 17:29:26 19° SE 17:29:26 19° SE
Cosmos 1745 Rocket 4.3 17:25:31 10° N 17:31:13 38° ENE 17:36:52 10° SE
Meteor 2-20 Rocket 4.3 17:26:16 10° S 17:32:26 73° E 17:38:23 10° NNE
CZ-2D R/B 3.3 17:29:45 10° SSE 17:33:55 78° ENE 17:38:03 10° NNW
SL-16 R/B 4.1 17:29:10 10° N 17:34:36 33° WNW 17:40:00 10° WSW
SKYMED 2 3.4 17:35:14 31° NNE 17:37:16 79° ESE 17:41:36 10° S
Cosmos 1244 Rocket 4.4 17:31:02 10° N 17:37:20 80° E 17:43:31 10° SSE
COSMOS 2455 3.4 17:32:49 10° S 17:38:13 36° ESE 17:38:36 36° ESE
Meteor 2-2 Rocket 4.1 17:32:43 10° S 17:38:20 73° E 17:42:46 17° NNE
Okean 1 3.1 17:35:11 10° S 17:38:21 63° SSE 17:38:21 63° SSE
Cosmos 494 Rocket 4.5 17:38:33 10° NNW 17:42:50 40° NE 17:42:50 40° NE
Cosmos 1844 Rocket 3.0 17:40:29 10° NNW 17:45:49 43° NE 17:45:49 43° NE
Cosmos 2219 3.4 17:40:12 10° NNW 17:45:56 72° WSW 17:51:38 10° SSE
Cosmos 1980 Rocket 2.3 17:40:31 10° SW 17:46:10 74° WNW 17:49:21 27° NNE
Aureole 1 Rocket 3.7 17:43:22 10° SSW 17:48:01 69° WNW 17:51:47 22° NNE
SL-08 R/B 4.4 17:42:10 10° N 17:48:32 81° E 17:54:53 10° SSE
Meteor 1-26 Rocket 4.0 17:43:34 10° S 17:48:57 89° E 17:52:49 20° NNE
PSLV R/B 3.2 17:46:01 10° SSE 17:50:02 83° ENE 17:54:07 10° NNW
ARIANE 5 R/B 4.3 17:47:47 10° SSW 17:52:16 31° W 17:56:51 10° NNW
Cosmos 1386 Rocket 4.3 17:46:18 10° N 17:52:23 66° ENE 17:58:32 10° SSE
SL-19 R/B 4.1 17:47:27 10° SSE 17:52:53 85° ENE 17:58:40 10° NNW
Cosmos 2263 Rocket 3.4 17:48:37 10° NW 17:53:58 43° WSW 17:59:17 10° S
BREEZE-M DEB (TANK) 4.0 17:55:09 10° SW 17:57:14 28° SSW 17:57:14 28° SSW
COSMO-SKYMED 1 2.5 17:59:08 66° S 17:59:08 66° S 18:02:42 10° SSW
Cosmos 1680 Rocket 3.3 17:54:14 10° NNW 17:59:28 76° ENE 18:00:25 59° SE
BREEZE-M DEB (TANK) 4.3 17:56:37 10° WNW 18:00:40 74° SSW 18:06:53 28° ESE
NOAA 6 3.8 17:57:09 10° SSE 18:02:15 85° ENE 18:07:23 10° NNW
Cosmos 2369 3.6 17:58:03 10° SSW 18:03:47 90° ESE 18:05:20 51° NNE
Cosmos 967 Rocket 4.4 17:58:03 10° SSW 18:04:22 73° ESE 18:05:43 56° ENE
Cosmos 44 Rocket 3.8 18:07:51 10° NW 18:11:53 51° N 18:11:53 51° N
Cosmos 2333 Rocket 4.0 18:27:59 10° S 18:29:34 19° S 18:29:34 19° S
CENTAUR R/B 4.1 18:29:04 10° NW 18:35:03 27° N 18:35:36 27° NNE
Lacrosse 5 rocket 4.0 18:32:04 10° NW 18:32:26 12° NW 18:32:26 12° NW
Meteor 1-14 Rocket 4.4 18:33:18 10° NNW 18:39:01 69° W 18:39:10 69° WSW
USA 215 3.7 18:59:28 51° NNW 18:59:28 51° NNW 19:04:41 10° NW
SL-16 R/B 4.0 19:09:07 10° SW 19:11:20 24° SW 19:11:20 24° SW
COSMOS 2455 4.2 19:18:08 10° WSW 19:21:46 35° WSW 19:21:46 35° WSW
Cosmos 1980 Rocket 4.4 19:27:19 10° W 19:31:07 18° NW 19:31:07 18° NW
